TimeEDT,TemperatureF,Dew PointF,Humidity,Sea Level PressureIn,VisibilityMPH,Wind Direction,Wind SpeedMPH,Gust SpeedMPH,PrecipitationIn,Events,Conditions,WindDirDegrees,DateUTC
12:53 AM,52.0,33.1,49,30.18,10.0,South,8.1,-,N/A,,Clear,190,2011-11-02 04:53:00
1:53 AM,50.0,33.1,52,30.19,10.0,South,6.9,-,N/A,,Clear,190,2011-11-02 05:53:00
2:53 AM,48.9,33.1,54,30.19,10.0,South,6.9,-,N/A,,Clear,190,2011-11-02 06:53:00
3:53 AM,50.0,33.1,52,30.19,10.0,SSW,8.1,-,N/A,,Clear,200,2011-11-02 07:53:00
4:53 AM,48.9,32.0,52,30.20,10.0,SSW,8.1,-,N/A,,Clear,200,2011-11-02 08:53:00
5:53 AM,48.0,32.0,54,30.22,10.0,South,8.1,-,N/A,,Clear,190,2011-11-02 09:53:00
6:53 AM,48.9,30.9,50,30.22,10.0,South,8.1,-,N/A,,Clear,190,2011-11-02 10:53:00
7:53 AM,46.9,30.9,54,30.22,10.0,SSW,5.8,-,N/A,,Clear,200,2011-11-02 11:53:00
8:53 AM,48.0,30.9,52,30.22,10.0,South,6.9,-,N/A,,Clear,190,2011-11-02 12:53:00
9:53 AM,52.0,32.0,47,30.21,10.0,South,9.2,-,N/A,,Clear,190,2011-11-02 13:53:00
10:53 AM,55.9,32.0,40,30.20,10.0,SSW,11.5,17.3,N/A,,Clear,200,2011-11-02 14:53:00
11:53 AM,60.1,34.0,38,30.20,10.0,SSW,10.4,-,N/A,,Clear,200,2011-11-02 15:53:00
1:53 PM,63.0,36.0,37,30.14,10.0,SSW,12.7,-,N/A,,Clear,210,2011-11-02 17:53:00
2:53 PM,64.9,37.0,36,30.11,10.0,SW,10.4,23.0,N/A,,Clear,220,2011-11-02 18:53:00
3:53 PM,64.9,36.0,34,30.09,10.0,SSW,13.8,21.9,N/A,,Clear,200,2011-11-02 19:53:00
4:53 PM,64.9,36.0,34,30.07,10.0,South,13.8,20.7,N/A,,Clear,190,2011-11-02 20:53:00
6:53 PM,61.0,37.0,41,30.08,10.0,South,8.1,-,N/A,,Clear,190,2011-11-02 22:53:00
7:53 PM,59.0,37.0,44,30.06,10.0,South,8.1,-,N/A,,Clear,170,2011-11-02 23:53:00
8:53 PM,57.9,37.9,47,30.06,10.0,South,9.2,-,N/A,,Clear,180,2011-11-03 00:53:00
9:53 PM,57.0,37.9,49,30.07,10.0,SSW,6.9,-,N/A,,Clear,200,2011-11-03 01:53:00
10:53 PM,57.0,37.0,47,30.04,10.0,South,9.2,-,N/A,,Clear,180,2011-11-03 02:53:00
11:53 PM,55.9,37.0,49,30.04,10.0,SSW,8.1,-,N/A,,Clear,200,2011-11-03 03:53:00